Regional Weather Roundup
Issued by NWS

Home | Current Version | Previous Version | Text Only | Print | Product List | Glossary On
Versions: 1 2 3 4 5 6 7 8 9 10 11 12 13 14 15 16 17 18 19 20 21 22 23 24 25 26 27 28 29 30 31 32 33 34 35 36 37 38 39 40 41 42 43 44 45 46 47 48 49 50
000
ASUS43 KDTX 060010
RWRMI
MICHIGAN HOURLY REGIONAL WEATHER ROUNDUP
NATIONAL WEATHER SERVICE DETROIT/PONTIAC MI
800 PM EDT SUN JUL 05 2015

NOTE: "FAIR" INDICATES FEW OR NO CLOUDS BELOW 12,000 FEET WITH NO
SIGNIFICANT WEATHER AND/OR OBSTRUCTION TO VISIBILITY.

MIZ047>049-052>055-059>063-066>070-074>076-081>083-060100-
SOUTHEAST LOWER MICHIGAN

CITY           SKY/WX    TMP DP  RH WIND       PRES   REMARKS
ADRIAN         PTSUNNY   74  58  57 SE6       30.09F
6HR MIN TEMP:  74; 6HR MAX TEMP:  82;

ALMA           SUNNY     79  62  54 S3        30.06S
ANN ARBOR      PTSUNNY   73  59  61 SE5       30.09F
BAD AXE        SUNNY     76  61  61 E3        30.07F
6HR MIN TEMP:  76; 6HR MAX TEMP:  81;

CARO           SUNNY     78  63  58 CALM      30.07S
DETROIT CITY   MOSUNNY   77  55  46 SE7       30.09F
6HR MIN TEMP:  76; 6HR MAX TEMP:  81;

DETROIT        PTSUNNY   77  57  50 SE5       30.09F
6HR MIN TEMP:  77; 6HR MAX TEMP:  82;

FLINT          MOSUNNY   81  60  48 S7        30.07F
6HR MIN TEMP:  81; 6HR MAX TEMP:  84;

GROSSE ILE     MOSUNNY   72  64  78 S6        30.08F
HILLSDALE      PTSUNNY   76  60  58 SE3       30.09F
6HR MIN TEMP:  76; 6HR MAX TEMP:  81;

HOWELL         PTSUNNY   78  58  50 S6        30.08F
6HR MIN TEMP:  78; 6HR MAX TEMP:  82;


CITY           SKY/WX    TMP DP  RH WIND       PRES   REMARKS
JACKSON        PTSUNNY   77  59  53 S8        30.08F
6HR MIN TEMP:  77; 6HR MAX TEMP:  82;

LAMBERTVILLE   PTSUNNY   75  58  55 E5        30.10S
6HR MIN TEMP:  75; 6HR MAX TEMP:  82;

LANSING        SUNNY     79  62  56 S8        30.07F
6HR MIN TEMP:  79; 6HR MAX TEMP:  83;

LAPEER         FAIR      77  59  54 S7        30.08F
MASON          MOSUNNY   74  62  66 SE3       30.07F
MONROE         PTSUNNY   72  58  60 E6        30.08F
MT. CLEMENS    PTSUNNY   72  60  66 SE6       30.07F
6HR MIN TEMP:  72; 6HR MAX TEMP:  80;

PONTIAC        PTSUNNY   77  56  48 S7        30.08F
6HR MIN TEMP:  77; 6HR MAX TEMP:  82;

PORT HOPE        N/A     68  65  90 E7        30.07F
6HR MIN TEMP:  68; 6HR MAX TEMP:  72;

PORT HURON     MOSUNNY   72  63  73 CALM      30.09F
TRI CITIES     SUNNY     81  62  52 S6        30.06F
6HR MIN TEMP:  80; 6HR MAX TEMP:  84;

MIDLAND        FAIR      80  60  50 S5        30.04S
TROY           MOSUNNY   79  56  44 SE3       30.10F
SAGINAW HB     SUNNY     79  59  50 S6        30.06S
$$
MIZ043>046-050>051-056>058-064>065-071>073-077>080-060100-
SOUTHWEST LOWER MICHIGAN

CITY           SKY/WX    TMP DP  RH WIND       PRES   REMARKS
BATTLE CREEK   SUNNY     80  60  50 S6        30.07F
6HR MIN TEMP:  80; 6HR MAX TEMP:  83;

BENTON HARBOR  SUNNY     78  61  55 CALM      30.04F
6HR MIN TEMP:  78; 6HR MAX TEMP:  81;

BIG RAPIDS     SUNNY     78  60  54 CALM      30.04F
6HR MIN TEMP:  78; 6HR MAX TEMP:  81;

COLDWATER      PTSUNNY   78  58  51 CALM      30.07F
6HR MIN TEMP:  78; 6HR MAX TEMP:  80;

FREMONT        FAIR      76  56  49 SW5       30.04F
HOLLAND        SUNNY     78  59  51 W5        30.05F
6HR MIN TEMP:  78; 6HR MAX TEMP:  83;

GRAND RAPIDS   MOSUNNY   79  63  57 S7        30.05F
6HR MIN TEMP:  79; 6HR MAX TEMP:  84;

IONIA          FAIR      80  62  55 S5        30.05F
KALAMAZOO      SUNNY     80  60  50 S6        30.06F
6HR MIN TEMP:  80; 6HR MAX TEMP:  84;

LUDINGTON      SUNNY     76  60  58 S7        30.04S
6HR MIN TEMP:  76; 6HR MAX TEMP:  80;

MARSHALL       MOSUNNY   79  63  57 S3        30.07S
MOUNT PLEASANT SUNNY     80  61  53 SE6       30.04F
6HR MIN TEMP:  80; 6HR MAX TEMP:  83;

MUSKEGON       MOSUNNY   76  59  55 SW5       30.04F
6HR MIN TEMP:  76; 6HR MAX TEMP:  82;

SOUTH HAVEN    SUNNY     77  58  52 CALM      30.05S
$$
MIZ016>042-060100-
NORTHERN LOWER MICHIGAN

CITY           SKY/WX    TMP DP  RH WIND       PRES   REMARKS
ALPENA         SUNNY     72  60  66 SE6       30.05F
6HR MIN TEMP:  72; 6HR MAX TEMP:  79;

BEAVER ISLAND  SUNNY     72  59  63 S6        30.00F
6HR MIN TEMP:  72; 6HR MAX TEMP:  78;

BELLAIRE       SUNNY     81  61  50 CALM      30.01S
6HR MIN TEMP:  81; 6HR MAX TEMP:  85;

CADILLAC       SUNNY     77  62  58 SW5       30.05S
CHARLEVOIX     SUNNY     75  61  62 W8        30.04S
FRANKFORT      SUNNY     75  55  49 SW7       30.02F
GAYLORD        SUNNY     79  60  52 S7        30.05S
6HR MIN TEMP:  79; 6HR MAX TEMP:  83;

GRAYLING       SUNNY     78  61  55 S6        30.06R
6HR MIN TEMP:  78; 6HR MAX TEMP:  83;

HARBOR SPRINGS SUNNY     74  63  68 CALM      30.01F
HOUGHTON LAKE  SUNNY     77  60  55 S7        30.06S
6HR MIN TEMP:  77; 6HR MAX TEMP:  82;

MANISTEE       SUNNY    N/A N/A N/A S6        30.03S
OSCODA         SUNNY     73  60  63 S6        30.06S
PELLSTON       SUNNY     79  64  60 VRB5      30.02S
6HR MIN TEMP:  79; 6HR MAX TEMP:  83;

ROGERS CITY    MOSUNNY   75  61  61 S9        30.03F
TRAVERSE CITY  PTSUNNY   82  62  50 VRB3      29.99F
6HR MIN TEMP:  82; 6HR MAX TEMP:  87;

$$
MIZ007>008-015-060100-
EASTERN UPPER MICHIGAN

CITY           SKY/WX    TMP DP  RH WIND       PRES   REMARKS
KINROSS        SUNNY     75  61  60 SE10      30.01F
6HR MIN TEMP:  75; 6HR MAX TEMP:  81;

MACKINAC ISLAN SUNNY     72  60  65 E6        30.02S
6HR MIN TEMP:  71; 6HR MAX TEMP:  77;

NEWBERRY       SUNNY     71  62  71 S9        29.97F
S. S. MARIE    SUNNY     75  60  59 VRB7      30.01S
6HR MIN TEMP:  75; 6HR MAX TEMP:  82;

MUNISING         N/A     77  62  59 S15G25    29.91F
6HR MIN TEMP:  77; 6HR MAX TEMP:  85;

$$
MIZ004>006-011>014-085-060100-
CENTRAL UPPER MICHIGAN

CITY           SKY/WX    TMP DP  RH WIND       PRES   REMARKS
MANISTIQUE     SUNNY     63  57  82 S6        29.98F
ESCANABA       SUNNY     72  61  68 S10       29.95S
6HR MIN TEMP:  72; 6HR MAX TEMP:  77;

MENOMINEE      SUNNY     75  63  64 S10       29.95F
6HR MIN TEMP:  75; 6HR MAX TEMP:  81;

SAWYER-GWINN   SUNNY     77  63  61 S15       29.93S
$$
MIZ001>003-009>011-084-060100-
WESTERN UPPER MICHIGAN

CITY           SKY/WX    TMP DP  RH WIND       PRES   REMARKS
IRON MOUNTAIN  SUNNY     79  61  53 S9        29.93F
6HR MIN TEMP:  79; 6HR MAX TEMP:  83;

HOUGHTON       MOSUNNY   80  59  48 S5        29.84F
6HR MIN TEMP:  80; 6HR MAX TEMP:  85;

COPPER HARBOR    N/A     79  62  56 VRB3      29.82F
6HR MIN TEMP:  57; 6HR MAX TEMP:  82;

IRONWOOD       PTSUNNY   79  63  57 S9G22     29.81F
6HR MIN TEMP:  79; 6HR MAX TEMP:  81;

$$

ABBREVIATIONS USED IN REMARKS
   TC - TEMPERATURE IN CELSIUS
  WCI - WIND CHILL INDEX
   HX - HEAT INDEX
  VSB - VISIBILITY



USA.gov is the U.S. government's official web portal to all federal, state and local government web resources and services.